GW1279 Weather Reports


time (UTC)temp
C
wind
direction
speed
KPH
gust
KPH
rain 1hr
cm
rain 24hr
cm
rain mn
cm
humidity
%
barometer
mb
20260508071529 3 0 0.0 4.8 0.00 0.00 0.00 70 1004.4
20260508070030 3 301 1.6 6.4 0.00 0.00 0.00 69 1004.7
20260508064532 4 301 0.0 3.2 0.00 0.03 0.00 67 1004.7
20260508063035 4 0 0.0 3.2 0.00 0.03 0.00 66 1004.8
20260508061536 4 0 0.0 6.4 0.00 0.03 0.00 67 1004.9
20260508060032 4 0 0.0 8.0 0.00 0.03 0.00 66 1005.0
20260508054534 5 0 0.0 8.0 0.00 0.41 0.00 65 1005.2
20260508053033 4 299 0.0 9.7 0.00 0.41 0.00 66 1005.2
20260508051529 5 0 0.0 3.2 0.00 0.41 0.00 64 1005.3
20260508050030 5 0 0.0 3.2 0.00 0.41 0.00 61 1005.4
20260508044528 5 0 0.0 3.2 0.00 0.46 0.00 60 1005.4
20260508043029 5 0 0.0 1.6 0.00 0.46 0.00 60 1005.5
20260508041534 5 0 0.0 6.4 0.00 0.46 0.00 63 1005.4
20260508040029 5 0 0.0 0.0 0.00 0.46 0.00 58 1005.6
20260508034540 6 0 0.0 3.2 0.00 0.48 0.46 57 1005.9
20260508033030 6 0 0.0 0.0 0.00 0.48 0.46 55 1005.9
20260508031534 6 0 0.0 4.8 0.00 0.48 0.46 54 1005.9
20260508030030 7 311 0.0 12.9 0.00 0.48 0.46 53 1005.6
20260508024552 7 0 1.6 16.1 0.00 0.51 0.46 53 1005.6
20260508023030 7 0 0.0 4.8 0.00 0.51 0.46 53 1005.6
20260508021528 7 0 1.6 14.5 0.00 0.51 0.46 52 1005.3
20260508020027 7 0 3.2 12.9 0.00 0.51 0.46 52 1005.4
20260508014527 7 294 4.8 12.9 0.00 0.58 0.46 52 1005.4
20260508013033 8 302 3.2 16.1 0.00 0.58 0.46 53 1005.3
20260508011532 8 0 3.2 12.9 0.00 0.58 0.46 52 1005.3
20260508010028 8 0 0.0 11.3 0.00 0.58 0.46 50 1005.3
20260508004541 9 277 3.2 19.3 0.00 0.58 0.46 49 1005.0
20260508003029 10 303 3.2 16.1 0.00 0.58 0.46 47 1004.9
20260508001538 10 313 1.6 16.1 0.00 0.58 0.46 47 1004.7
20260508000027 10 0 3.2 14.5 0.00 0.58 0.46 47 1004.5
20260507234531 11 0 6.4 20.9 0.00 0.69 0.46 45 1004.3
20260507233029 11 285 3.2 19.3 0.00 0.69 0.46 45 1003.9
20260507231528 12 0 4.8 24.1 0.00 0.69 0.46 44 1003.7
20260507230030 13 292 9.7 25.7 0.00 0.69 0.46 42 1003.2
20260507224528 14 295 6.4 17.7 0.00 1.27 0.46 36 1002.8
20260507223030 15 269 4.8 17.7 0.00 1.27 0.46 36 1002.6
20260507221536 15 297 6.4 19.3 0.00 1.27 0.46 37 1002.4
20260507220031 15 291 6.4 17.7 0.00 1.27 0.46 40 1002.2
20260507214528 16 252 4.8 20.9 0.00 1.60 0.46 40 1002.3
20260507213031 16 293 1.6 20.9 0.00 1.60 0.46 43 1002.3
20260507211528 15 246 6.4 24.1 0.00 1.60 0.46 43 1002.4
20260507210028 15 296 1.6 19.3 0.00 1.60 0.46 51 1002.3
20260507204528 15 248 6.4 17.7 0.00 1.85 0.46 51 1002.1
20260507203042 15 271 6.4 19.3 0.00 1.85 0.46 49 1002.0
20260507201530 16 281 6.4 16.1 0.00 1.85 0.46 49 1001.8
20260507200030 15 301 4.8 16.1 0.00 1.85 0.46 49 1001.8
20260507194530 15 0 0.0 9.7 0.00 1.88 0.46 47 1001.9
20260507193028 16 0 1.6 9.7 0.00 1.88 0.46 45 1002.0
20260507191535 16 0 0.0 11.3 0.00 1.88 0.46 51 1002.0
20260507190030 15 0 3.2 12.9 0.00 1.88 0.46 47 1002.2
20260507184530 17 321 0.0 16.1 0.00 1.88 0.46 50 1002.3
20260507183030 15 0 0.0 12.9 0.00 1.88 0.46 55 1002.4
20260507181530 15 259 1.6 9.7 0.00 1.88 0.46 53 1002.6
20260507180028 15 0 0.0 12.9 0.00 1.88 0.46 50 1002.7
20260507174538 15 309 0.0 11.3 0.00 1.88 0.46 51 1002.7
20260507173052 16 300 4.8 14.5 0.00 1.88 0.46 47 1002.8
20260507171529 16 0 0.0 6.4 0.00 1.88 0.46 51 1002.7
20260507170032 15 0 3.2 12.9 0.00 1.88 0.46 50 1002.9
20260507164532 15 275 4.8 12.9 0.00 1.88 0.46 54 1003.1
20260507163028 14 290 0.0 8.0 0.00 1.88 0.46 60 1003.3
20260507161540 14 0 0.0 8.0 0.00 1.88 0.46 55 1003.6
20260507160028 15 0 0.0 1.6 0.00 1.88 0.46 59 1003.6
20260507154528 14 0 0.0 8.0 0.00 1.88 0.46 61 1003.6
20260507153027 13 0 0.0 8.0 0.00 1.88 0.46 65 1003.7
20260507151530 13 0 1.6 11.3 0.00 1.88 0.46 64 1003.8
20260507150037 12 0 0.0 3.2 0.00 1.88 0.46 66 1004.0
20260507144527 13 0 0.0 9.7 0.00 1.88 0.46 68 1004.1
20260507143033 12 0 0.0 8.0 0.00 1.88 0.46 70 1004.3
20260507141545 11 0 0.0 6.4 0.00 1.88 0.46 71 1004.5
20260507140028 11 0 0.0 3.2 0.00 1.88 0.46 74 1004.7
20260507134528 11 0 0.0 12.9 0.00 1.88 0.46 73 1004.6
20260507133043 10 0 0.0 6.4 0.00 1.88 0.46 75 1004.6
20260507131530 10 0 0.0 8.0 0.00 1.88 0.46 77 1004.9
20260507130031 10 0 0.0 9.7 0.00 1.88 0.46 82 1004.8
20260507124530 10 0 0.0 6.4 0.00 1.88 0.46 85 1004.9
20260507123037 8 0 0.0 9.7 0.00 1.88 0.46 90 1004.9
20260507121528 8 0 0.0 0.0 0.00 1.88 0.46 94 1004.6
20260507120034 7 0 0.0 0.0 0.00 1.88 0.46 96 1004.9
20260507114530 7 0 0.0 1.6 0.00 1.88 0.46 97 1005.2
20260507113034 7 0 0.0 1.6 0.00 1.88 0.46 97 1004.9
20260507111531 7 0 0.0 0.0 0.00 1.88 0.46 97 1005.9
20260507110037 7 0 0.0 0.0 0.00 1.88 0.46 97 1006.1
20260507104530 6 0 0.0 0.0 0.00 1.88 0.46 97 1005.3
20260507103030 6 0 0.0 0.0 0.00 1.88 0.46 97 1005.3
20260507101534 6 0 0.0 0.0 0.00 1.88 0.46 97 1004.4
20260507100032 6 0 0.0 0.0 0.00 1.88 0.46 97 1004.4
20260507094535 6 0 0.0 4.8 0.00 1.88 0.46 97 1004.5
20260507093030 6 0 0.0 4.8 0.00 1.88 0.46 97 1004.6
20260507091533 6 0 0.0 4.8 0.00 1.88 0.46 97 1004.6
20260507090029 6 0 0.0 6.4 0.00 1.88 0.46 98 1004.7
20260507084531 6 0 0.0 4.8 0.00 1.88 0.46 98 1004.3
20260507083030 7 0 1.6 16.1 0.00 1.88 0.46 98 1004.4
20260507081537 7 0 0.0 8.0 0.00 1.88 0.46 98 1004.3
20260507080028 7 0 0.0 1.6 0.00 1.88 0.46 99 1004.2
20260507074528 7 0 0.0 6.4 0.00 1.88 0.46 98 1004.3
20260507073031 7 0 0.0 4.8 0.00 1.88 0.46 99 1004.2